[[{"header":{"parameterUnit":"m.s-1","parameterCategory":2,"la1":30.2991,"la2":30.254,"lo1":-89.0895,"lo2":-89.0444,"dy":0.0017,"dx":0.0017,"nx":28,"ny":28,"refTime":"2025-06-05T03:00:00:Z","depth":"0","parameterNumber":2,"parameterNumberName":"U-component_of_CURRENTS"},"data":[0,0,0,0,0,0,0,0,0,0,0,0,0,0,0,0,0,0,0,0,0,0,0,0,0,0,0,0,0,0,0,0,0,0,0,0,0,0,0,0,0,0,0,0,0,0,0,0,0,0,0,0,0,0,0,0,0,0,0.2316,0.2316,0,0.2384,0.2385,0.2386,0.2428,0.2428,0.2429,0.2429,0.2403,0.2402,0.2401,0,0,0,0,0,0,0,0,0,0,0,0,0,0.2256,0.2256,0.2316,0.2317,0.2317,0.2384,0.2385,0.2386,0.2428,0.2429,0.2429,0.2429,0.2403,0.2402,0.2401,0,0,0,0,0,0,0,0,0,0,0,0,0,0.23,0.2257,0.2316,0.2345,0.2349,0.2384,0.2385,0.2386,0.2428,0.2429,0.2429,0.2429,0.2403,0.2402,0.2401,0.2391,0,0,0.2398,0.2397,0,0,0,0,0,0,0,0,0.2297,0.2302,0.234,0.2343,0.2347,0.2397,0.2354,0.2383,0.2428,0.24,0.2429,0.2429,0.2391,0.2391,0.2407,0.239,0.2389,0.2397,0.2397,0.2396,0.2396,0,0,0,0,0,0,0,0.2294,0.23,0.2344,0.2341,0.2345,0.2367,0.2373,0.2361,0.2393,0.2402,0.2405,0.241,0.2392,0.2408,0.2406,0.2388,0.2397,0.2396,0.2396,0.2395,0.2388,0.2388,0,0,0,0,0,0,0.2281,0.2297,0.2342,0.2346,0.232,0.2367,0.2374,0.2382,0.2395,0.2398,0.241,0.2412,0.241,0.2407,0.2405,0.241,0.2396,0.2395,0.2394,0.2387,0.2388,0.2389,0,0,0,0,0,0,0.2279,0.2284,0.2339,0.2322,0.233,0.2368,0.2376,0.2383,0.2396,0.2402,0.2403,0.2415,0.241,0.2407,0.2405,0.2408,0.2395,0.2394,0.2387,0.2388,0.2388,0.2408,0,0,0,0,0,0,0.2278,0.2284,0.2291,0.2321,0.233,0.2349,0.2376,0.2384,0.2398,0.2401,0.2406,0.2405,0.241,0.2407,0.2404,0.2406,0.2393,0.2386,0.2387,0.2388,0.2407,0.2409,0.2412,0,0,0,0,0,0.2275,0.227,0.2291,0.2296,0.2337,0.2348,0.2355,0.2384,0.2398,0.2397,0.2415,0.2404,0.2411,0.2406,0.2403,0.2405,0.2386,0.2387,0.2388,0.2406,0.2409,0.2412,0,0,0,0,0,0,0.2251,0.2275,0.2298,0.2303,0.2323,0.2354,0.2355,0.2378,0.2395,0.2396,0.2408,0.2407,0.2409,0.2402,0.2397,0.2407,0.2397,0.2397,0.2412,0.2415,0.2417,0.2403,0.2392,0,0,0,0,0,0.2249,0.2251,0.228,0.2287,0.229,0.2324,0.2335,0.2354,0.2371,0.2379,0.2389,0.2399,0.2412,0.2409,0.2412,0.2409,0.2406,0.241,0.2412,0.2415,0.2402,0.2408,0.241,0.2392,0.2392,0.2392,0,0,0.2243,0.2257,0.226,0.2282,0.2298,0.2305,0.2331,0.2336,0.2353,0.2369,0.2386,0.2402,0.2413,0.2424,0.2423,0.2417,0.2423,0.2416,0.2418,0.2403,0.2409,0.2411,0.2412,0.2393,0.2393,0.2393,0,0,0.2226,0.2239,0.2237,0.2246,0.2265,0.2283,0.2281,0.2309,0.2329,0.235,0.2375,0.2394,0.2403,0.2423,0.2433,0.2445,0.2436,0.2445,0.2443,0.245,0.2451,0.2452,0.2469,0.2471,0.2446,0.2446,0.2446,0,0.222,0.2224,0.2238,0.2237,0.2241,0.2269,0.2267,0.2293,0.2324,0.234,0.235,0.2397,0.2406,0.2432,0.2447,0.2449,0.2453,0.2433,0.2453,0.2453,0.2454,0.2471,0.2473,0.2447,0.2447,0.2446,0.2446,0,0.2206,0.2208,0.2198,0.2212,0.222,0.2212,0.2243,0.226,0.2289,0.2322,0.2354,0.2384,0.2412,0.2426,0.2441,0.2456,0.2459,0.2457,0.2444,0.2457,0.2474,0.2476,0.2448,0.2448,0.2448,0.2447,0,0,0.2175,0.2189,0.2181,0.2187,0.2199,0.2202,0.2222,0.2251,0.2273,0.2311,0.2341,0.2383,0.2405,0.2417,0.2442,0.2453,0.2476,0.2456,0.2456,0.247,0.2499,0.2553,0.2561,0.2477,0.2477,0.2477,0.2516,0,0.2155,0.2151,0.2161,0.2154,0.2151,0.2177,0.2198,0.2232,0.2267,0.2302,0.2345,0.2379,0.2401,0.2421,0.2436,0.2469,0.2479,0.2466,0.2485,0.2486,0.253,0.2563,0.2632,0.2677,0.2517,0.2518,0.2518,0,0.2126,0.2129,0.2118,0.2135,0.2135,0.2141,0.217,0.2194,0.225,0.2283,0.2323,0.2358,0.24,0.2407,0.2458,0.245,0.2469,0.2488,0.249,0.2529,0.2543,0.2634,0.2686,0.2655,0.2521,0.252,0.252,0,0.2086,0.209,0.2081,0.2082,0.211,0.2116,0.2136,0.2187,0.2211,0.2267,0.2291,0.2346,0.2379,0.2407,0.2472,0.2459,0.2523,0.2509,0.2572,0.2576,0.2632,0.2641,0.2651,0.2521,0.2521,0.2521,0.2521,0,0.2045,0.2032,0.2064,0.2053,0.2054,0.2089,0.21,0.2135,0.2187,0.2214,0.2274,0.231,0.2378,0.2434,0.2469,0.2548,0.2525,0.2576,0.2591,0.2644,0.2653,0.2625,0.2545,0.2523,0.2522,0.2522,0.2522,0,0.1984,0.2004,0.1992,0.202,0.203,0.2027,0.2068,0.2089,0.2143,0.2177,0.2194,0.2287,0.2376,0.2453,0.2521,0.2558,0.2567,0.264,0.2709,0.2732,0.2755,0.2672,0.2511,0.2428,0.2708,0.271,0.2711,0,0.1945,0.1936,0.1952,0.195,0.1955,0.197,0.199,0.2054,0.2081,0.2165,0.218,0.2284,0.2366,0.2515,0.263,0.273,0.2611,0.2818,0.28,0.2773,0.2691,0.2506,0.2433,0.2887,0.2889,0.2892,0.2893,0,0.1864,0.1872,0.1865,0.188,0.189,0.1905,0.1941,0.196,0.204,0.2083,0.2157,0.223,0.2426,0.2588,0.2749,0.2822,0.2719,0.2865,0.2817,0.2814,0.2629,0.2555,0.2841,0.2913,0.2911,0.2909,0.2908,0.2908,0.1791,0.1777,0.179,0.1802,0.182,0.1848,0.1854,0.1908,0.1955,0.2023,0.2111,0.2223,0.2522,0.2784,0.2837,0.3022,0.2819,0.3019,0.2918,0.2731,0.2649,0.2983,0.3081,0.308,0.3079,0.3079,0.3078,0,0.1701,0.1719,0.1722,0.174,0.1753,0.1789,0.1827,0.1836,0.188,0.1977,0.2051,0.2356,0.2612,0.2847,0.315,0.3106,0.2956,0.3037,0.281,0.2731,0.3065,0.3079,0.3206,0.3206,0.3206,0.3206,0.3206,0.3206,0.165,0.1645,0.1673,0.1684,0.1702,0.1703,0.172,0.1738,0.1798,0.1914,0.2063,0.2209,0.2623,0.3003,0.3151,0.3118,0.284,0.2765,0.2593,0.2897,0.2887,0.2878,0.2878,0.296,0.296,0.2269,0.2264,0.226]},{"header":{"parameterUnit":"m.s-1","parameterCategory":2,"la1":30.2991,"la2":30.254,"lo1":-89.0895,"lo2":-89.0444,"dy":0.0017,"dx":0.0017,"nx":28,"ny":28,"refTime":"2025-06-05T03:00:00:Z","depth":"0","parameterNumber":3,"parameterNumberName":"V-component_of_CURRENTS"},"data":[0,0,0,0,0,0,0,0,0,0,0,0,0,0,0,0,0,0,0,0,0,0,0,0,0,0,0,0,0,0,0,0,0,0,0,0,0,0,0,0,0,0,0,0,0,0,0,0,0,0,0,0,0,0,0,0,0,0,-0.0425,-0.0426,0,-0.049,-0.0491,-0.0492,-0.0523,-0.0523,-0.0523,-0.0523,-0.0649,-0.0653,-0.0656,0,0,0,0,0,0,0,0,0,0,0,0,0,-0.0354,-0.0355,-0.0425,-0.0426,-0.0427,-0.049,-0.0491,-0.0492,-0.0523,-0.0523,-0.0523,-0.0523,-0.0648,-0.0652,-0.0656,0,0,0,0,0,0,0,0,0,0,0,0,0,-0.04,-0.0355,-0.0425,-0.0449,-0.0452,-0.049,-0.0491,-0.0492,-0.0523,-0.0523,-0.0523,-0.0523,-0.0647,-0.0652,-0.0657,-0.0693,0,0,-0.0673,-0.0675,0,0,0,0,0,0,0,0,-0.0397,-0.0402,-0.0445,-0.0447,-0.045,-0.0497,-0.0512,-0.0562,-0.0524,-0.0498,-0.0523,-0.0523,-0.0603,-0.0612,-0.0626,-0.0699,-0.0705,-0.0673,-0.0677,-0.0679,-0.068,0,0,0,0,0,0,0,-0.0394,-0.04,-0.0452,-0.0446,-0.0449,-0.0465,-0.0471,-0.0521,-0.0553,-0.05,-0.0502,-0.0507,-0.0605,-0.0621,-0.0629,-0.0707,-0.0673,-0.0678,-0.0681,-0.0683,-0.0816,-0.0816,0,0,0,0,0,0,-0.0382,-0.0397,-0.045,-0.0454,-0.0421,-0.0466,-0.0473,-0.0484,-0.0551,-0.0561,-0.0507,-0.0508,-0.0612,-0.0623,-0.0634,-0.0675,-0.0679,-0.0684,-0.0687,-0.0815,-0.0816,-0.0816,0,0,0,0,0,0,-0.038,-0.0386,-0.0448,-0.0425,-0.0434,-0.0467,-0.0479,-0.0485,-0.0499,-0.0556,-0.0566,-0.0514,-0.0612,-0.0627,-0.067,-0.068,-0.0686,-0.0691,-0.0815,-0.0815,-0.0816,-0.0762,0,0,0,0,0,0,-0.0378,-0.0386,-0.0388,-0.0425,-0.0435,-0.047,-0.0479,-0.0486,-0.0501,-0.0504,-0.0566,-0.0577,-0.0613,-0.0662,-0.0676,-0.0688,-0.0695,-0.0814,-0.0815,-0.0816,-0.0763,-0.076,-0.0758,0,0,0,0,0,-0.0375,-0.0381,-0.0388,-0.0394,-0.0438,-0.047,-0.0477,-0.05,-0.0502,-0.0511,-0.0544,-0.0575,-0.0677,-0.0667,-0.0682,-0.0696,-0.0814,-0.0815,-0.0816,-0.0764,-0.0761,-0.0758,0,0,0,0,0,0,-0.0362,-0.0386,-0.0394,-0.041,-0.0436,-0.0475,-0.0485,-0.0498,-0.0531,-0.0533,-0.058,-0.0595,-0.0636,-0.0675,-0.0662,-0.0737,-0.0751,-0.0755,-0.0707,-0.0704,-0.0702,-0.0687,-0.0699,0,0,0,0,0,-0.0357,-0.0361,-0.0394,-0.0407,-0.0418,-0.045,-0.0464,-0.0481,-0.0514,-0.0528,-0.0567,-0.0612,-0.0653,-0.0683,-0.0726,-0.077,-0.0791,-0.079,-0.0787,-0.0785,-0.0784,-0.0818,-0.0818,-0.0819,-0.0819,-0.0819,0,0,-0.0358,-0.0368,-0.0374,-0.0403,-0.0425,-0.0446,-0.0458,-0.0482,-0.0497,-0.0539,-0.0571,-0.0605,-0.0662,-0.0703,-0.0727,-0.0737,-0.0793,-0.0786,-0.0783,-0.0784,-0.0819,-0.0819,-0.0819,-0.082,-0.0819,-0.0819,0,0,-0.036,-0.037,-0.0376,-0.0393,-0.0419,-0.0441,-0.0444,-0.0482,-0.0495,-0.0529,-0.0558,-0.0591,-0.0662,-0.0697,-0.0725,-0.0738,-0.0774,-0.0759,-0.0742,-0.0775,-0.0775,-0.0775,-0.0785,-0.0786,-0.0763,-0.0763,-0.0763,0,-0.0359,-0.0371,-0.0384,-0.0395,-0.0408,-0.0436,-0.0451,-0.0473,-0.0518,-0.0527,-0.0535,-0.0615,-0.0658,-0.0704,-0.0705,-0.0732,-0.075,-0.0745,-0.077,-0.0771,-0.0772,-0.0782,-0.0784,-0.076,-0.0761,-0.0761,-0.0761,0,-0.037,-0.0376,-0.0383,-0.0401,-0.0417,-0.0436,-0.0464,-0.0481,-0.0496,-0.0516,-0.0553,-0.06,-0.0647,-0.0666,-0.0692,-0.0725,-0.0733,-0.0755,-0.0771,-0.0768,-0.0779,-0.0783,-0.0757,-0.0758,-0.0758,-0.0759,0,0,-0.0377,-0.0387,-0.0389,-0.039,-0.042,-0.0434,-0.0455,-0.0482,-0.0488,-0.0525,-0.0535,-0.0597,-0.0611,-0.0644,-0.0679,-0.0707,-0.0722,-0.0732,-0.0735,-0.073,-0.0778,-0.077,-0.0774,-0.0749,-0.075,-0.075,-0.0776,0,-0.0383,-0.039,-0.0397,-0.0409,-0.0419,-0.0438,-0.0451,-0.0475,-0.0495,-0.0511,-0.055,-0.0577,-0.0608,-0.0623,-0.0656,-0.0706,-0.0731,-0.0712,-0.0793,-0.0794,-0.0779,-0.0778,-0.0728,-0.0746,-0.0779,-0.078,-0.078,0,-0.0395,-0.0393,-0.0401,-0.0399,-0.0405,-0.0415,-0.043,-0.0445,-0.0473,-0.0485,-0.0515,-0.0544,-0.0586,-0.061,-0.0689,-0.0675,-0.0722,-0.0758,-0.076,-0.0777,-0.0794,-0.076,-0.0751,-0.0859,-0.0786,-0.0785,-0.0785,0,-0.039,-0.0395,-0.0394,-0.0398,-0.0408,-0.0408,-0.0414,-0.0436,-0.0437,-0.0466,-0.0465,-0.0523,-0.054,-0.0613,-0.0679,-0.069,-0.0756,-0.0784,-0.082,-0.0819,-0.0805,-0.0802,-0.0901,-0.0842,-0.0842,-0.0842,-0.0842,0,-0.0395,-0.0394,-0.0387,-0.0387,-0.0375,-0.0389,-0.0382,-0.0395,-0.0405,-0.0398,-0.0447,-0.0447,-0.0542,-0.0588,-0.0664,-0.074,-0.0748,-0.0813,-0.083,-0.0783,-0.0778,-0.0895,-0.0974,-0.0843,-0.0843,-0.0843,-0.0843,0,-0.0393,-0.0394,-0.0384,-0.0377,-0.0373,-0.0362,-0.035,-0.0346,-0.0358,-0.0348,-0.0352,-0.0391,-0.0442,-0.053,-0.0634,-0.071,-0.0843,-0.082,-0.0744,-0.0752,-0.0894,-0.0971,-0.1079,-0.1125,-0.0869,-0.0869,-0.0869,0,-0.0394,-0.0389,-0.0366,-0.035,-0.0344,-0.0328,-0.0317,-0.0323,-0.0313,-0.0308,-0.0298,-0.0332,-0.0341,-0.0476,-0.0604,-0.0725,-0.0833,-0.0781,-0.0803,-0.0894,-0.0993,-0.103,-0.1064,-0.0755,-0.0754,-0.0753,-0.0753,0,-0.0384,-0.0373,-0.0358,-0.0325,-0.0304,-0.0279,-0.0261,-0.0244,-0.0243,-0.0218,-0.019,-0.0189,-0.0297,-0.0365,-0.0529,-0.064,-0.0847,-0.0771,-0.0892,-0.0935,-0.0956,-0.1009,-0.0736,-0.0746,-0.0747,-0.0747,-0.0747,-0.0748,-0.0366,-0.0348,-0.0324,-0.0295,-0.0268,-0.0233,-0.019,-0.0159,-0.0114,-0.0025,-0.007,0.0034,-0.0105,-0.0307,-0.052,-0.0791,-0.0821,-0.0862,-0.0952,-0.0983,-0.1024,-0.0727,-0.0744,-0.0745,-0.0745,-0.0746,-0.0746,0,-0.0339,-0.0325,-0.0296,-0.0257,-0.0222,-0.0211,-0.0152,-0.0075,0.0014,0.0136,0.0199,0.0315,0.0071,-0.0179,-0.0547,-0.0863,-0.0998,-0.1047,-0.1098,-0.1128,-0.0879,-0.0871,-0.0882,-0.0882,-0.0882,-0.0882,-0.0882,-0.0882,-0.032,-0.0295,-0.0286,-0.0228,-0.0193,-0.01,-0.0047,0.0085,0.0217,0.0491,0.0702,0.0816,0.076,-0.0169,-0.0793,-0.1014,-0.125,-0.1322,-0.1448,-0.129,-0.128,-0.127,-0.128,-0.1377,-0.1378,-0.1617,-0.162,-0.1623]}],[{"header":{"parameterUnit":"m.s-1","parameterCategory":2,"la1":30.2991,"la2":30.254,"lo1":-89.0895,"lo2":-89.0444,"dy":0.0017,"dx":0.0017,"nx":28,"ny":28,"refTime":"2025-06-05T03:00:00:Z","depth":"2","parameterNumber":2,"parameterNumberName":"U-component_of_CURRENTS"},"data":[0,0,0,0,0,0,0,0,0,0,0,0,0,0,0,0,0,0,0,0,0,0,0,0,0,0,0,0,0,0,0,0,0,0,0,0,0,0,0,0,0,0,0,0,0,0,0,0,0,0,0,0,0,0,0,0,0,0,0.0511,0.0511,0,0.0513,0.0513,0.0513,0.0499,0.0499,0.0499,0.0499,0.0458,0.0457,0.0456,0,0,0,0,0,0,0,0,0,0,0,0,0,0.0472,0.0473,0.0511,0.0511,0.0511,0.0513,0.0513,0.0513,0.0499,0.0499,0.0499,0.0499,0.0458,0.0457,0.0456,0,0,0,0,0,0,0,0,0,0,0,0,0,0.0481,0.0473,0.0511,0.0507,0.0507,0.0513,0.0513,0.0513,0.0499,0.0499,0.0499,0.0499,0.0458,0.0457,0.0455,0.0449,0,0,0.0451,0.045,0,0,0,0,0,0,0,0,0.048,0.0482,0.0507,0.0507,0.0507,0.0508,0.0484,0.049,0.0499,0.0499,0.0499,0.0499,0.0473,0.047,0.0467,0.0448,0.0446,0.0451,0.045,0.0449,0.0449,0,0,0,0,0,0,0,0.048,0.0481,0.0509,0.0508,0.0508,0.0498,0.0499,0.0485,0.0484,0.0499,0.0499,0.0504,0.0472,0.0469,0.0466,0.0445,0.0451,0.0449,0.0448,0.0448,0.0446,0.0447,0,0,0,0,0,0,0.0487,0.0481,0.0509,0.0509,0.0496,0.0499,0.05,0.0506,0.0485,0.0483,0.0504,0.0503,0.0471,0.0468,0.0464,0.0479,0.0449,0.0448,0.0447,0.0446,0.0447,0.0448,0,0,0,0,0,0,0.0486,0.0489,0.0509,0.0497,0.0499,0.05,0.0507,0.0506,0.051,0.049,0.0486,0.0511,0.0471,0.0466,0.0459,0.0477,0.0447,0.0446,0.0445,0.0446,0.0447,0.0494,0,0,0,0,0,0,0.0485,0.0489,0.0493,0.0498,0.0501,0.0517,0.0507,0.0506,0.0515,0.0514,0.0494,0.049,0.047,0.0462,0.0458,0.0474,0.0445,0.0443,0.0445,0.0447,0.0491,0.0497,0.0501,0,0,0,0,0,0.0484,0.0487,0.0493,0.0496,0.0507,0.0518,0.0518,0.0516,0.0516,0.0519,0.0506,0.0491,0.0469,0.0461,0.0456,0.0472,0.0443,0.0445,0.0447,0.0489,0.0496,0.0501,0,0,0,0,0,0,0.0466,0.0486,0.0493,0.0501,0.0514,0.0517,0.0517,0.0524,0.0517,0.0513,0.0495,0.049,0.0489,0.0476,0.0468,0.0478,0.0456,0.0457,0.049,0.0496,0.0501,0.0508,0.0443,0,0,0,0,0,0.0468,0.0476,0.0496,0.0501,0.0509,0.0517,0.0521,0.0524,0.0522,0.052,0.0511,0.05,0.0493,0.0491,0.0477,0.0482,0.0496,0.0492,0.0497,0.0501,0.0505,0.054,0.0549,0.0454,0.0454,0.0454,0,0,0.0458,0.0474,0.0475,0.0498,0.0504,0.052,0.0518,0.0526,0.0539,0.0515,0.0522,0.0512,0.0497,0.05,0.05,0.0492,0.0541,0.0503,0.0507,0.0509,0.0543,0.0552,0.0561,0.0455,0.0455,0.0455,0,0,0.045,0.0462,0.047,0.0487,0.0508,0.0518,0.0527,0.054,0.0544,0.0551,0.0541,0.0544,0.0531,0.0531,0.0527,0.0553,0.0561,0.0554,0.0589,0.0624,0.0632,0.0639,0.0694,0.0705,0.0562,0.0562,0.0562,0,0.0439,0.0459,0.0473,0.0493,0.0508,0.0522,0.054,0.0548,0.0558,0.0567,0.0556,0.0562,0.0546,0.0565,0.0575,0.0564,0.0595,0.0567,0.0631,0.0639,0.0645,0.0699,0.0711,0.0565,0.0564,0.0564,0.0564,0,0.0445,0.0464,0.0469,0.0503,0.052,0.0534,0.0559,0.0576,0.0584,0.0593,0.0611,0.0598,0.0606,0.0607,0.0596,0.0642,0.0654,0.063,0.0617,0.0658,0.0712,0.0724,0.0568,0.0567,0.0567,0.0566,0,0,0.0414,0.0464,0.0467,0.0489,0.0529,0.0543,0.0573,0.0605,0.063,0.0636,0.0668,0.0662,0.0666,0.0663,0.0662,0.0693,0.077,0.069,0.069,0.0747,0.0875,0.0966,0.0988,0.0764,0.0766,0.0767,0.0902,0,0.0417,0.045,0.0481,0.0515,0.0534,0.057,0.06,0.063,0.0651,0.0684,0.0688,0.0705,0.0685,0.0698,0.0728,0.0751,0.08,0.0737,0.0824,0.0827,0.0906,0.1004,0.0855,0.0971,0.0914,0.0916,0.0918,0,0.0414,0.0442,0.047,0.053,0.0543,0.0567,0.0624,0.0655,0.0705,0.0723,0.0751,0.0758,0.0802,0.0775,0.0857,0.0822,0.0859,0.0879,0.0885,0.096,0.0941,0.0916,0.0994,0.0938,0.0936,0.0934,0.0933,0,0.0379,0.0435,0.0456,0.0474,0.054,0.0565,0.0604,0.0659,0.0693,0.0751,0.0783,0.0826,0.0858,0.09,0.0948,0.0911,0.105,0.0997,0.112,0.1127,0.1012,0.1007,0.1071,0.1071,0.1071,0.107,0.107,0,0.0367,0.0388,0.044,0.0452,0.0494,0.0545,0.0592,0.0642,0.0708,0.0761,0.0798,0.0859,0.0893,0.097,0.0995,0.1123,0.1093,0.1163,0.118,0.1029,0.1024,0.0987,0.0975,0.1075,0.1074,0.1073,0.1072,0,0.0333,0.0359,0.0401,0.0465,0.0476,0.0512,0.0586,0.0622,0.0693,0.077,0.0794,0.0899,0.1023,0.1079,0.1172,0.1205,0.1291,0.1339,0.1182,0.1182,0.1332,0.1321,0.1497,0.1502,0.1506,0.1509,0.1512,0,0.0319,0.0328,0.0397,0.0414,0.0443,0.049,0.0517,0.0599,0.0647,0.0803,0.0844,0.0994,0.1121,0.1318,0.1422,0.1544,0.144,0.1428,0.1334,0.1383,0.1381,0.1364,0.1348,0.1194,0.1194,0.1194,0.1194,0,0.03,0.0325,0.0361,0.0393,0.0421,0.047,0.0523,0.0563,0.0678,0.0767,0.0926,0.105,0.1303,0.1394,0.1568,0.159,0.1398,0.144,0.1523,0.1132,0.1114,0.1107,0.1098,0.1193,0.1193,0.1193,0.1193,0.1193,0.0291,0.0313,0.0341,0.0386,0.0411,0.0457,0.0516,0.0584,0.0685,0.0858,0.0965,0.1123,0.1238,0.1495,0.1539,0.1546,0.1624,0.1444,0.1435,0.1428,0.1393,0.1385,0.1509,0.151,0.1512,0.1513,0.1514,0,0.0284,0.0297,0.0323,0.0376,0.0399,0.0444,0.0523,0.0586,0.0719,0.0897,0.106,0.102,0.121,0.1286,0.136,0.1461,0.1378,0.1331,0.1128,0.1131,0.1133,0.1073,0.1109,0.1108,0.1107,0.1106,0,0,0.0277,0.0289,0.0312,0.0348,0.0397,0.048,0.0556,0.0636,0.0763,0.0809,0.0886,0.1206,0.1272,0.1177,0.1214,0.1155,0.1137,0.1131,0.145,0.1213,0.1214,0.1191,0.1104,0,0,0,0,0]},{"header":{"parameterUnit":"m.s-1","parameterCategory":2,"la1":30.2991,"la2":30.254,"lo1":-89.0895,"lo2":-89.0444,"dy":0.0017,"dx":0.0017,"nx":28,"ny":28,"refTime":"2025-06-05T03:00:00:Z","depth":"2","parameterNumber":3,"parameterNumberName":"V-component_of_CURRENTS"},"data":[0,0,0,0,0,0,0,0,0,0,0,0,0,0,0,0,0,0,0,0,0,0,0,0,0,0,0,0,0,0,0,0,0,0,0,0,0,0,0,0,0,0,0,0,0,0,0,0,0,0,0,0,0,0,0,0,0,0,0.048,0.0479,0,0.0396,0.0395,0.0394,0.0319,0.0317,0.0316,0.0315,0.0104,0.01,0.0095,0,0,0,0,0,0,0,0,0,0,0,0,0,0.0618,0.0616,0.0481,0.0479,0.0478,0.0396,0.0395,0.0394,0.0319,0.0317,0.0316,0.0314,0.0106,0.01,0.0095,0,0,0,0,0,0,0,0,0,0,0,0,0,0.0552,0.0615,0.0481,0.0428,0.0422,0.0396,0.0395,0.0394,0.0319,0.0317,0.0315,0.0314,0.0107,0.0101,0.0094,0.0089,0,0,0.0074,0.0071,0,0,0,0,0,0,0,0,0.0555,0.0547,0.0437,0.0431,0.0425,0.0363,0.0366,0.0284,0.032,0.0362,0.0315,0.0313,0.0178,0.0165,0.016,0.0079,0.007,0.0073,0.0069,0.0066,0.0064,0,0,0,0,0,0,0,0.056,0.055,0.0451,0.0435,0.0428,0.0422,0.041,0.0351,0.0282,0.0358,0.0352,0.0337,0.0174,0.0167,0.0154,0.0067,0.0073,0.0067,0.0063,0.006,-0.0158,-0.016,0,0,0,0,0,0,0.0563,0.0555,0.0453,0.0448,0.0483,0.042,0.0408,0.0387,0.0285,0.0267,0.0339,0.0334,0.018,0.0162,0.0146,0.0039,0.0066,0.006,0.0056,-0.0156,-0.0158,-0.016,0,0,0,0,0,0,0.0566,0.0554,0.0457,0.0497,0.0483,0.0419,0.0397,0.0387,0.0342,0.0271,0.0251,0.03,0.0177,0.0156,0.0068,0.0033,0.0057,0.0051,-0.0154,-0.0157,-0.0159,-0.0116,0,0,0,0,0,0,0.057,0.0556,0.0539,0.0497,0.0481,0.0426,0.0398,0.0386,0.0336,0.0328,0.0232,0.0213,0.0174,0.0079,0.0062,0.0025,0.0045,-0.0152,-0.0155,-0.0159,-0.0115,-0.0116,-0.0118,0,0,0,0,0,0.0576,0.0559,0.0538,0.0525,0.046,0.0425,0.0417,0.0369,0.0336,0.0321,0.0251,0.0214,0.0044,0.0073,0.0053,0.0013,-0.015,-0.0154,-0.0158,-0.0114,-0.0116,-0.0118,0,0,0,0,0,0,0.0607,0.0548,0.0525,0.0489,0.0453,0.041,0.0387,0.0353,0.0291,0.0266,0.02,0.0177,0.0085,0.0041,0.0073,-0.0063,-0.0063,-0.0071,-0.0023,-0.0026,-0.0027,-0.0009,0.004,0,0,0,0,0,0.0608,0.0573,0.0528,0.0494,0.0477,0.0428,0.0403,0.0367,0.031,0.028,0.0213,0.0132,0.0061,0.0012,-0.0052,-0.0122,-0.0158,-0.0166,-0.0167,-0.0168,-0.017,-0.0246,-0.0253,-0.0173,-0.0173,-0.0173,0,0,0.0608,0.057,0.0549,0.0498,0.0464,0.0443,0.0408,0.0361,0.0332,0.0265,0.0193,0.0124,0.0041,-0.0034,-0.0081,-0.0081,-0.0209,-0.0173,-0.0173,-0.0174,-0.025,-0.0258,-0.0265,-0.0176,-0.0176,-0.0175,0,0,0.0598,0.056,0.0533,0.051,0.0454,0.0431,0.0411,0.0353,0.0315,0.0248,0.0186,0.0102,-0.0005,-0.0063,-0.0107,-0.016,-0.0212,-0.02,-0.0196,-0.0269,-0.0276,-0.0282,-0.0323,-0.0333,-0.0202,-0.0202,-0.0202,0,0.0594,0.056,0.0521,0.0499,0.0478,0.0425,0.0404,0.0369,0.0286,0.0247,0.0222,0.0054,-0.0013,-0.0107,-0.0127,-0.0162,-0.0206,-0.0174,-0.0268,-0.0275,-0.0282,-0.0323,-0.0335,-0.0201,-0.0201,-0.0201,-0.0201,0,0.0576,0.0548,0.0533,0.0488,0.0467,0.0436,0.0394,0.035,0.0294,0.0249,0.0138,0.0055,-0.0052,-0.0087,-0.0125,-0.022,-0.0235,-0.0254,-0.0252,-0.0287,-0.0328,-0.0341,-0.0198,-0.0199,-0.0199,-0.02,0,0,0.0549,0.0525,0.0513,0.0503,0.0457,0.0437,0.0395,0.034,0.0296,0.0211,0.0144,0.0024,-0.0039,-0.0095,-0.0163,-0.0223,-0.0302,-0.0262,-0.0267,-0.0282,-0.0454,-0.0405,-0.0415,-0.0345,-0.0347,-0.0349,-0.0456,0,0.0536,0.0513,0.0499,0.0475,0.0463,0.0425,0.0396,0.0338,0.0275,0.0202,0.0103,0.0005,-0.0038,-0.0108,-0.0173,-0.0276,-0.0338,-0.027,-0.0437,-0.0441,-0.0377,-0.0429,-0.0329,-0.0411,-0.0469,-0.0471,-0.0473,0,0.051,0.0503,0.0482,0.0472,0.0461,0.0433,0.0373,0.034,0.0244,0.0189,0.0084,0.0004,-0.0116,-0.0143,-0.0319,-0.028,-0.0371,-0.0433,-0.0439,-0.0419,-0.0418,-0.0393,-0.0433,-0.0495,-0.0493,-0.0491,-0.049,0,0.0501,0.0486,0.047,0.0464,0.0443,0.0409,0.0383,0.0309,0.0279,0.0155,0.0111,-0.0031,-0.012,-0.0246,-0.0376,-0.0372,-0.0543,-0.0555,-0.059,-0.0586,-0.0545,-0.0533,-0.0683,-0.0683,-0.0683,-0.0682,-0.0682,0,0.0491,0.0475,0.0457,0.0445,0.0421,0.0399,0.035,0.0304,0.0235,0.0198,0.0084,0.0038,-0.0157,-0.0267,-0.0381,-0.0515,-0.0559,-0.0598,-0.0621,-0.0525,-0.0511,-0.062,-0.0612,-0.0686,-0.0686,-0.0685,-0.0684,0,0.0473,0.0465,0.0437,0.0411,0.0409,0.037,0.0345,0.0322,0.025,0.0196,0.0151,0.0049,-0.0088,-0.0248,-0.0447,-0.0519,-0.0652,-0.069,-0.0545,-0.0548,-0.0644,-0.0632,-0.0749,-0.0749,-0.0748,-0.0748,-0.0748,0,0.0466,0.0455,0.0408,0.0402,0.038,0.0349,0.0348,0.0306,0.0292,0.0226,0.0211,0.0074,0.0036,-0.0205,-0.0364,-0.0547,-0.0642,-0.0614,-0.0588,-0.0646,-0.0656,-0.0645,-0.0634,-0.0517,-0.0515,-0.0513,-0.0512,0,0.0475,0.0432,0.0414,0.0385,0.0368,0.0376,0.0364,0.0369,0.0331,0.0316,0.0306,0.0285,0.0108,-0.0009,-0.0257,-0.0373,-0.0572,-0.0581,-0.0717,-0.05,-0.0431,-0.0439,-0.0436,-0.0496,-0.0497,-0.0498,-0.0499,-0.05,0.0464,0.0445,0.0413,0.0373,0.0367,0.0384,0.0398,0.0429,0.0444,0.0464,0.0444,0.051,0.0342,0.0156,-0.0127,-0.0416,-0.0416,-0.0517,-0.0522,-0.0528,-0.0466,-0.0399,-0.0445,-0.0446,-0.0447,-0.0448,-0.0449,0,0.0467,0.0448,0.0434,0.0389,0.0378,0.0361,0.0411,0.0467,0.0516,0.0633,0.0668,0.0698,0.055,0.0305,-0.0057,-0.0305,-0.0329,-0.0434,-0.0411,-0.0422,-0.0433,-0.0367,-0.032,-0.0321,-0.0322,-0.0323,0,0,0.0477,0.0457,0.0439,0.0405,0.0371,0.0386,0.0408,0.0525,0.066,0.0861,0.0993,0.1058,0.0797,0.0554,0.0176,-0.0087,-0.0207,-0.0134,-0.0194,-0.0132,-0.0141,-0.042,-0.0322,0,0,0,0,0]}],[{"header":{"parameterUnit":"m.s-1","parameterCategory":2,"la1":30.2991,"la2":30.254,"lo1":-89.0895,"lo2":-89.0444,"dy":0.0017,"dx":0.0017,"nx":28,"ny":28,"refTime":"2025-06-05T03:00:00:Z","depth":"4","parameterNumber":2,"parameterNumberName":"U-component_of_CURRENTS"},"data":[0,0,0,0,0,0,0,0,0,0,0,0,0,0,0,0,0,0,0,0,0,0,0,0,0,0,0,0,0,0,0,0,0,0,0,0,0,0,0,0,0,0,0,0,0,0,0,0,0,0,0,0,0,0,0,0,0,0,0.0386,0.0387,0,0.0415,0.0415,0.0415,0.0432,0.0432,0.0433,0.0433,0.0375,0.0373,0.0371,0,0,0,0,0,0,0,0,0,0,0,0,0,0.0354,0.0354,0.0386,0.0387,0.0387,0.0415,0.0415,0.0415,0.0432,0.0432,0.0433,0.0433,0.0375,0.0373,0.0371,0,0,0,0,0,0,0,0,0,0,0,0,0,0.0371,0.0354,0.0386,0.0401,0.0403,0.0415,0.0415,0.0415,0.0432,0.0432,0.0433,0.0433,0.0376,0.0373,0.037,0.0342,0,0,0.0362,0.0361,0,0,0,0,0,0,0,0,0.037,0.0371,0.0398,0.04,0.0403,0.0423,0.0383,0.0388,0.0432,0.0418,0.0433,0.0434,0.0384,0.0381,0.0382,0.034,0.0337,0.0361,0.036,0.0359,0.0358,0,0,0,0,0,0,0,0.0368,0.037,0.0394,0.0399,0.0402,0.041,0.0413,0.0384,0.0394,0.0419,0.0421,0.0429,0.0385,0.0385,0.038,0.0336,0.0362,0.0359,0.0357,0.0356,0.0261,0.026,0,0,0,0,0,0,0.037,0.0369,0.0393,0.0396,0.0391,0.0411,0.0413,0.0414,0.0396,0.0395,0.0429,0.043,0.0389,0.0384,0.0378,0.0353,0.0359,0.0356,0.0354,0.0262,0.0261,0.026,0,0,0,0,0,0,0.0369,0.0372,0.0392,0.0386,0.039,0.0411,0.0411,0.0414,0.0434,0.0405,0.0402,0.0449,0.039,0.0382,0.0364,0.035,0.0355,0.0352,0.0263,0.0261,0.026,0.0296,0,0,0,0,0,0,0.0368,0.0371,0.038,0.0386,0.039,0.0411,0.0411,0.0414,0.0439,0.0441,0.042,0.0415,0.0389,0.0369,0.0362,0.0347,0.035,0.0264,0.0262,0.026,0.0296,0.0296,0.0296,0,0,0,0,0,0.0366,0.0373,0.038,0.0384,0.0399,0.0412,0.0415,0.0429,0.044,0.045,0.0434,0.0417,0.0353,0.0367,0.0358,0.0342,0.0264,0.0262,0.0261,0.0296,0.0296,0.0296,0,0,0,0,0,0,0.0372,0.0376,0.0384,0.0394,0.041,0.0416,0.0434,0.0442,0.0439,0.0444,0.0415,0.0408,0.0383,0.0357,0.0373,0.0307,0.0301,0.0298,0.0331,0.0331,0.0331,0.0372,0.0347,0,0,0,0,0,0.0376,0.038,0.039,0.0404,0.0414,0.0428,0.044,0.0448,0.0446,0.0449,0.0428,0.0398,0.0364,0.0348,0.0316,0.0287,0.0314,0.0266,0.0266,0.0267,0.0293,0.0308,0.0313,0.0253,0.0253,0.0253,0,0,0.0385,0.0389,0.0393,0.0406,0.0422,0.0436,0.0437,0.046,0.0466,0.0438,0.0436,0.0404,0.0358,0.0324,0.0309,0.0304,0.0302,0.0264,0.0266,0.0292,0.0307,0.0313,0.0319,0.0252,0.0252,0.0253,0,0,0.04,0.0409,0.0417,0.043,0.0454,0.0457,0.0469,0.0478,0.0479,0.0468,0.0444,0.0417,0.0363,0.0333,0.0308,0.0292,0.0306,0.0265,0.0297,0.031,0.0317,0.0322,0.0395,0.0407,0.0261,0.0261,0.0261,0,0.0418,0.0424,0.0426,0.0442,0.0456,0.0469,0.0487,0.0488,0.0486,0.0483,0.047,0.0406,0.0369,0.0335,0.0326,0.0295,0.0328,0.0302,0.0315,0.0321,0.0327,0.0399,0.0412,0.0262,0.0262,0.0262,0.0262,0,0.0435,0.045,0.0462,0.0479,0.049,0.0512,0.0513,0.0518,0.0513,0.0506,0.0479,0.0432,0.0403,0.0364,0.0341,0.0342,0.0366,0.0321,0.0326,0.0336,0.0411,0.0424,0.0264,0.0264,0.0263,0.0263,0,0,0.0446,0.047,0.0477,0.0493,0.0513,0.0524,0.0531,0.0537,0.0551,0.0524,0.0532,0.0462,0.0456,0.043,0.039,0.0389,0.0455,0.0378,0.0378,0.0473,0.0543,0.0472,0.048,0.0415,0.0416,0.0417,0.0593,0,0.0467,0.0502,0.05,0.0534,0.0552,0.0558,0.0563,0.0567,0.0562,0.0571,0.0529,0.0526,0.0474,0.0473,0.0462,0.0451,0.0486,0.0416,0.05,0.0505,0.0457,0.0489,0.0422,0.0602,0.0605,0.0607,0.0609,0,0.0479,0.05,0.0537,0.056,0.057,0.0588,0.0608,0.0617,0.0624,0.0625,0.0619,0.0605,0.061,0.0563,0.059,0.0552,0.0571,0.0563,0.0568,0.0502,0.0456,0.0579,0.0632,0.063,0.0629,0.0627,0.0626,0,0.048,0.0521,0.0553,0.0566,0.0592,0.0607,0.0625,0.0635,0.0653,0.0688,0.0718,0.0704,0.0732,0.0722,0.0718,0.067,0.0764,0.0689,0.0659,0.0658,0.0657,0.0648,0.0743,0.0743,0.0742,0.0742,0.0741,0,0.0488,0.0514,0.0564,0.058,0.0615,0.063,0.0667,0.0684,0.0721,0.0735,0.0766,0.0763,0.0775,0.0811,0.0782,0.0777,0.0829,0.0698,0.0691,0.067,0.066,0.0669,0.0658,0.0748,0.0747,0.0746,0.0744,0,0.0472,0.0512,0.0546,0.0593,0.0616,0.0641,0.0704,0.0714,0.0783,0.0811,0.084,0.0867,0.0875,0.0905,0.0915,0.0877,0.0865,0.0862,0.0916,0.0905,0.0745,0.0733,0.0839,0.0838,0.0837,0.0836,0.0835,0,0.0465,0.0485,0.0554,0.0569,0.0593,0.0646,0.0662,0.0733,0.0739,0.082,0.0809,0.0883,0.0876,0.0886,0.0883,0.0906,0.0865,0.0938,0.0764,0.0769,0.0752,0.0742,0.0732,0.0834,0.0833,0.0833,0.0833,0,0.0437,0.047,0.0493,0.053,0.056,0.0594,0.0627,0.0645,0.0701,0.0794,0.0771,0.0789,0.0812,0.0793,0.088,0.085,0.0916,0.0926,0.0926,0.0761,0.0763,0.0745,0.0737,0.0829,0.083,0.083,0.083,0,0.041,0.0412,0.0441,0.0467,0.0498,0.0495,0.0542,0.0545,0.0587,0.068,0.065,0.07,0.076,0.0765,0.0787,0.0816,0.0753,0.0744,0.0751,0.0756,0.0637,0.0622,0.0663,0,0,0,0,0,0.0372,0.0357,0.0368,0.0381,0.0405,0.0423,0.0475,0.0516,0.0594,0.0557,0.0614,0.0605,0.0635,0.0646,0.0646,0.0718,0.0757,0.072,0.0749,0.081,0.0814,0.0676,0,0,0,0,0,0,0.0336,0.0344,0.034,0.0302,0.0285,0.0301,0.0327,0.0385,0.0372,0.0462,0.0462,0.0569,0.0583,0.0608,0.0623,0.064,0.0652,0.0769,0.0769,0.0808,0.0811,0.0815,0.0674,0,0,0,0,0]},{"header":{"parameterUnit":"m.s-1","parameterCategory":2,"la1":30.2991,"la2":30.254,"lo1":-89.0895,"lo2":-89.0444,"dy":0.0017,"dx":0.0017,"nx":28,"ny":28,"refTime":"2025-06-05T03:00:00:Z","depth":"4","parameterNumber":3,"parameterNumberName":"V-component_of_CURRENTS"},"data":[0,0,0,0,0,0,0,0,0,0,0,0,0,0,0,0,0,0,0,0,0,0,0,0,0,0,0,0,0,0,0,0,0,0,0,0,0,0,0,0,0,0,0,0,0,0,0,0,0,0,0,0,0,0,0,0,0,0,-0.0241,-0.0241,0,-0.0272,-0.0272,-0.0273,-0.0315,-0.0316,-0.0317,-0.0318,-0.0321,-0.0321,-0.032,0,0,0,0,0,0,0,0,0,0,0,0,0,-0.0211,-0.0211,-0.024,-0.0241,-0.0241,-0.0272,-0.0272,-0.0273,-0.0315,-0.0316,-0.0317,-0.0318,-0.0322,-0.0321,-0.032,0,0,0,0,0,0,0,0,0,0,0,0,0,-0.023,-0.0211,-0.024,-0.0267,-0.0269,-0.0272,-0.0272,-0.0273,-0.0315,-0.0316,-0.0317,-0.0318,-0.0322,-0.0321,-0.032,-0.0292,0,0,-0.0317,-0.0317,0,0,0,0,0,0,0,0,-0.0229,-0.0232,-0.0262,-0.0265,-0.0268,-0.0291,-0.0263,-0.0278,-0.0315,-0.0297,-0.0318,-0.0319,-0.0308,-0.0308,-0.0312,-0.0292,-0.0292,-0.0317,-0.0317,-0.0316,-0.0316,0,0,0,0,0,0,0,-0.0228,-0.023,-0.0253,-0.0263,-0.0266,-0.0275,-0.0279,-0.0266,-0.0295,-0.0299,-0.0302,-0.0306,-0.031,-0.0312,-0.0312,-0.0292,-0.0317,-0.0316,-0.0316,-0.0316,-0.0273,-0.0273,0,0,0,0,0,0,-0.0224,-0.0229,-0.0252,-0.0254,-0.0251,-0.0274,-0.0279,-0.0282,-0.0296,-0.03,-0.0305,-0.0308,-0.0313,-0.0313,-0.0312,-0.0301,-0.0316,-0.0315,-0.0315,-0.0274,-0.0273,-0.0273,0,0,0,0,0,0,-0.0223,-0.0226,-0.025,-0.0242,-0.0246,-0.0274,-0.0277,-0.0282,-0.0312,-0.0301,-0.0304,-0.0332,-0.0314,-0.0314,-0.032,-0.0301,-0.0315,-0.0314,-0.0275,-0.0274,-0.0273,-0.0264,0,0,0,0,0,0,-0.0222,-0.0225,-0.024,-0.0242,-0.0247,-0.0262,-0.0276,-0.0282,-0.0311,-0.0316,-0.0324,-0.0325,-0.0315,-0.0322,-0.0319,-0.03,-0.0313,-0.0275,-0.0274,-0.0273,-0.0265,-0.0263,-0.0261,0,0,0,0,0,-0.0221,-0.0226,-0.024,-0.0244,-0.0262,-0.0262,-0.0265,-0.0288,-0.0311,-0.032,-0.0331,-0.0326,-0.0312,-0.0321,-0.0318,-0.0298,-0.0276,-0.0275,-0.0273,-0.0266,-0.0264,-0.0261,0,0,0,0,0,0,-0.0222,-0.0231,-0.0247,-0.0257,-0.0267,-0.027,-0.0286,-0.0301,-0.0317,-0.0332,-0.0327,-0.0327,-0.0321,-0.0314,-0.0324,-0.0282,-0.0289,-0.0287,-0.0285,-0.0282,-0.028,-0.0286,-0.0313,0,0,0,0,0,-0.0228,-0.0239,-0.0245,-0.0258,-0.0265,-0.0282,-0.0293,-0.0307,-0.0315,-0.0326,-0.0326,-0.0323,-0.0307,-0.0304,-0.0291,-0.0275,-0.0281,-0.0257,-0.0255,-0.0253,-0.0256,-0.0265,-0.0264,-0.0268,-0.0269,-0.0269,0,0,-0.023,-0.0241,-0.0247,-0.026,-0.0274,-0.0279,-0.0292,-0.0311,-0.0318,-0.032,-0.0334,-0.0321,-0.0304,-0.0283,-0.0278,-0.0279,-0.0252,-0.0252,-0.0251,-0.0254,-0.0263,-0.0263,-0.0263,-0.0268,-0.0268,-0.0268,0,0,-0.023,-0.0253,-0.0259,-0.0269,-0.0292,-0.0296,-0.0306,-0.0317,-0.0329,-0.0328,-0.033,-0.0321,-0.0294,-0.0281,-0.0268,-0.0252,-0.0246,-0.0232,-0.0223,-0.0231,-0.0232,-0.0232,-0.0229,-0.0229,-0.0227,-0.0227,-0.0227,0,-0.0237,-0.0242,-0.026,-0.027,-0.0276,-0.0305,-0.0305,-0.032,-0.033,-0.0326,-0.0332,-0.0297,-0.0293,-0.0264,-0.0252,-0.0248,-0.0245,-0.0234,-0.023,-0.0231,-0.0231,-0.0229,-0.0229,-0.0227,-0.0227,-0.0227,-0.0227,0,-0.0234,-0.0247,-0.0252,-0.0271,-0.028,-0.0288,-0.0302,-0.0313,-0.0323,-0.0321,-0.0303,-0.0294,-0.0261,-0.0256,-0.0246,-0.023,-0.0224,-0.0232,-0.0239,-0.023,-0.0228,-0.0228,-0.0226,-0.0226,-0.0226,-0.0226,0,0,-0.0212,-0.0242,-0.0243,-0.0247,-0.028,-0.0276,-0.0294,-0.0292,-0.0285,-0.0295,-0.0273,-0.0255,-0.024,-0.0226,-0.0213,-0.0226,-0.0225,-0.0222,-0.0223,-0.0225,-0.0229,-0.0224,-0.0224,-0.0228,-0.0228,-0.0228,-0.0223,0,-0.0201,-0.0206,-0.0225,-0.0226,-0.0226,-0.0253,-0.0251,-0.026,-0.026,-0.0246,-0.0252,-0.0211,-0.0231,-0.0188,-0.0214,-0.0222,-0.0226,-0.0225,-0.0233,-0.0233,-0.0235,-0.0225,-0.0229,-0.0224,-0.0224,-0.0224,-0.0224,0,-0.0181,-0.0186,-0.0174,-0.0185,-0.0185,-0.0167,-0.0157,-0.0159,-0.0162,-0.0156,-0.0145,-0.0149,-0.0151,-0.0165,-0.0201,-0.0195,-0.0203,-0.0226,-0.0226,-0.0226,-0.0229,-0.0236,-0.0225,-0.0225,-0.0225,-0.0225,-0.0225,0,-0.0134,-0.0147,-0.0129,-0.0135,-0.0146,-0.0114,-0.01,-0.01,-0.0088,-0.0065,-0.0045,-0.0077,-0.0053,-0.0106,-0.0163,-0.0164,-0.022,-0.0225,-0.0231,-0.023,-0.0242,-0.0242,-0.0241,-0.0241,-0.0241,-0.0241,-0.0241,0,-0.0108,-0.0097,-0.0083,-0.0071,-0.0016,-0.0034,0.003,0.0033,0.0048,0.0062,0.0042,0.0031,-0.0035,-0.0088,-0.0149,-0.0201,-0.0204,-0.0228,-0.0231,-0.0236,-0.0235,-0.0242,-0.0242,-0.0241,-0.0241,-0.0241,-0.0241,0,-0.0067,-0.007,-0.0042,-0.0015,0.0014,0.007,0.0127,0.0147,0.0178,0.0197,0.0215,0.0137,0.0069,-0.0016,-0.0102,-0.0153,-0.0219,-0.0227,-0.0221,-0.0224,-0.0223,-0.0222,-0.0225,-0.0225,-0.0224,-0.0224,-0.0224,0,-0.0052,-0.0029,0.0021,0.006,0.0094,0.0173,0.0211,0.0235,0.0243,0.0232,0.0223,0.0184,0.0121,0.0013,-0.0101,-0.0195,-0.0206,-0.022,-0.0229,-0.022,-0.0222,-0.0222,-0.0222,-0.0224,-0.0224,-0.0224,-0.0224,0,-0.0021,0.0006,0.0029,0.013,0.0197,0.0247,0.031,0.0324,0.032,0.032,0.0274,0.0213,0.0133,0.001,-0.004,-0.0131,-0.0212,-0.0218,-0.0219,-0.0228,-0.0219,-0.0221,-0.0221,-0.0223,-0.0223,-0.0223,-0.0223,0,0.0009,0.0041,0.01,0.02,0.0268,0.0332,0.0346,0.0356,0.0377,0.0346,0.03,0.0221,0.015,0.0041,-0.0051,-0.0098,-0.011,-0.0117,-0.0123,-0.0125,-0.0111,-0.0086,-0.0047,0,0,0,0,0,0.0037,0.0093,0.0165,0.0278,0.0341,0.0405,0.0402,0.0388,0.0363,0.0351,0.0348,0.0267,0.0159,0.0067,0.003,-0.0059,-0.013,-0.0109,-0.0143,-0.022,-0.0221,-0.0223,0,0,0,0,0,0,0.0056,0.0121,0.0178,0.0343,0.0433,0.0516,0.0518,0.0484,0.0466,0.0415,0.0347,0.0297,0.0172,0.0229,0.0058,0.0028,0.0005,-0.0175,-0.0176,-0.022,-0.0221,-0.0221,-0.0223,0,0,0,0,0]}]]